Wind_Speed
19 20 20 21 21 21 20 19 19 19 18 17 17 16 16 15 15 14 13 15 20 23 21 18 15 12 7 5 2 2 2 5 7 4 5 6 5 5 4 2 3 5 10 18 16
18 19 19 20 20 20 21 21 20 20 19 18 18 17 16 15 14 15 13 15 16 20 22 19 17 13 10 8 5 4 2 7 7 5 5 6 6 3 3 3 0 6 10 15 14
17 17 17 17 17 17 17 17 19 20 20 19 18 17 15 14 12 16 13 15 15 16 22 22 20 17 14 10 8 5 5 6 4 4 2 6 7 4 6 4 4 5 9 10 14
17 17 18 18 18 18 17 15 14 14 16 19 21 18 16 13 5 11 14 16 16 15 19 22 23 20 15 13 10 6 9 5 3 4 4 10 8 7 8 4 7 7 8 6 13
18 17 17 18 19 19 19 17 16 16 15 15 17 19 18 16 16 14 14 16 18 18 16 19 20 18 15 12 11 12 10 6 4 3 1 7 9 6 7 6 6 7 9 10 13
20 19 18 18 17 18 18 16 16 15 14 15 15 15 17 17 17 19 17 15 17 18 17 18 18 18 13 13 12 8 12 12 9 6 4 6 8 9 8 7 5 6 8 14 16
22 22 20 18 17 16 16 16 14 14 14 12 13 14 14 15 18 19 20 20 18 15 15 19 20 21 16 11 16 14 11 10 11 9 8 9 9 10 11 7 5 6 9 16 19
22 21 20 19 18 16 15 15 15 13 12 11 11 12 13 13 18 19 20 23 22 19 15 20 22 20 19 16 10 11 14 14 11 12 10 13 12 14 13 12 5 6 10 17 21
22 20 20 18 17 14 13 13 12 11 11 9 8 10 12 12 16 19 21 21 25 24 19 16 21 20 18 17 15 15 16 17 12 9 7 16 11 16 14 15 12 6 9 14 18
21 19 20 18 16 12 11 11 10 7 7 4 4 4 10 10 16 19 20 23 22 22 25 21 16 18 22 21 24 20 20 12 16 12 9 18 9 11 11 14 12 11 6 11 15
22 20 20 17 14 11 10 9 7 4 4 5 5 8 7 9 12 13 19 21 23 18 20 23 20 23 22 24 23 12 15 17 13 12 13 18 13 10 9 14 16 14 11 11 14
22 21 20 17 15 12 8 7 6 6 5 5 5 4 8 10 8 11 13 17 19 22 19 18 25 20 18 21 23 20 18 17 13 7 14 18 18 12 14 11 16 13 13 13 18
21 18 19 15 13 13 9 7 6 7 7 6 5 3 4 12 16 13 10 13 18 21 24 21 13 22 19 20 23 25 21 18 16 14 12 14 18 18 17 17 15 18 16 16 20
22 19 17 15 12 12 10 7 5 5 6 3 5 2 6 7 9 15 15 12 15 23 19 23 21 9 19 21 23 25 23 18 15 15 22 17 19 25 20 19 19 19 23 18 16
21 20 16 11 10 12 12 7 2 7 7 5 4 7 9 12 11 12 17 15 13 17 24 21 20 21 18 20 21 22 22 21 18 18 15 13 17 13 23 22 21 22 25 20 17
20 18 16 11 9 11 8 3 2 4 3 3 3 3 4 9 12 10 17 20 16 12 17 21 14 16 20 19 19 21 15 19 17 20 19 21 20 20 18 24 21 20 24 25 20
20 17 14 10 9 7 6 1 1 5 1 1 4 2 3 7 9 9 9 11 14 18 19 19 19 15 16 21 20 21 23 16 14 16 14 28 20 23 7 15 19 20 18 18 24
18 16 12 9 8 5 4 1 6 1 2 2 3 2 4 9 6 9 8 7 18 18 13 22 20 25 16 25 22 28 28 22 20 15 18 18 18 22 19 9 10 15 18 21 24
14 11 10 9 4 4 1 5 1 3 2 1 2 4 4 2 7 6 8 5 10 18 11 14 25 14 24 19 24 25 34 27 18 16 17 25 25 9 16 13 8 11 12 16 21
13 11 10 9 4 2 2 6 2 4 3 1 3 3 6 2 5 7 6 5 5 9 17 7 12 21 18 20 19 19 26 28 22 17 16 20 23 20 22 16 12 12 14 16 17
14 14 11 9 5 3 3 4 3 5 3 3 3 3 4 3 4 5 5 7 9 8 12 5 12 21 18 28 25 22 18 32 28 24 12 14 19 16 19 11 11 8 6 11 18
14 7 11 10 3 1 2 5 6 2 2 2 3 4 4 2 3 4 6 7 9 11 3 4 8 13 23 18 26 24 25 28 26 24 29 19 12 8 11 8 12 8 9 13 19
14 11 13 9 0 3 3 4 5 3 3 2 3 4 4 3 3 4 4 10 9 8 5 5 8 16 14 15 16 26 23 27 29 26 26 22 18 6 5 10 9 7 4 10 19
13 7 14 8 8 2 3 4 4 8 4 4 5 3 3 3 2 3 3 5 10 9 8 9 8 13 11 6 7 18 27 25 26 26 25 29 27 10 8 11 14 10 6 5 15
15 11 11 6 8 5 3 3 5 5 5 4 5 6 5 5 4 5 3 4 7 12 10 7 8 10 11 8 8 11 15 24 29 27 25 21 24 25 14 15 12 20 13 8 13
15 14 14 9 6 2 2 2 4 3 4 6 6 7 5 5 6 4 2 2 5 4 4 6 8 10 14 11 11 14 15 19 23 27 26 22 18 17 24 19 14 19 11 8 14
15 15 12 8 5 4 2 4 3 4 1 4 5 7 7 7 5 6 6 7 8 6 4 5 7 8 17 11 9 16 21 18 22 23 25 25 20 21 19 28 22 21 11 9 10
Wind_Direction
296 292 289 286 284 281 279 276 273 271 269 266 267 266 265 264 264 256 244 238 231 226 231 229 236 246 250 263 253 124 135 125 119 136 126 166 125 142 171 185 178 176 157 184 174
308 303 297 292 286 283 280 278 274 272 270 267 262 260 261 261 261 256 239 236 234 227 228 226 229 233 252 255 240 160 182 113 113 103 127 166 144 113 124 170 220 174 170 183 186
311 305 303 300 297 293 287 282 277 272 269 266 262 258 254 257 257 257 240 229 229 225 224 218 220 221 222 235 229 209 163 143 87 89 75 169 154 157 138 159 203 199 183 180 187
320 309 303 299 296 291 287 286 282 279 273 266 262 255 251 246 235 245 235 223 220 220 221 223 220 220 217 226 226 205 192 168 116 68 65 152 155 137 148 182 185 176 184 192 178
320 314 308 301 296 290 286 282 280 280 276 274 268 257 247 244 235 234 229 218 215 217 216 226 223 218 220 229 233 229 212 221 236 264 173 143 171 156 167 177 193 199 187 170 183
325 321 314 305 298 295 294 290 282 277 277 270 265 262 252 243 236 230 224 216 213 213 212 216 219 216 229 231 223 233 221 241 242 226 184 177 182 184 188 210 184 195 190 176 174
325 320 315 312 300 295 297 292 284 284 282 275 264 259 254 241 232 227 221 214 210 208 207 206 214 213 221 229 234 233 241 244 234 227 231 200 210 196 208 214 199 188 178 180 174
328 321 315 314 304 292 293 290 285 286 283 275 266 255 255 244 231 225 221 212 210 214 212 203 210 206 221 217 228 230 240 235 214 216 235 200 177 190 200 213 190 191 185 185 184
334 329 323 319 314 300 286 285 287 290 281 275 264 253 248 241 232 225 219 215 211 211 214 213 206 202 217 221 222 221 219 213 209 211 222 183 138 187 200 216 226 208 201 192 186
330 330 323 326 327 315 289 288 285 283 273 279 263 227 226 221 229 226 220 215 215 210 211 214 210 209 215 212 218 208 214 209 211 214 202 189 178 196 207 203 228 217 194 200 192
336 331 319 327 334 331 308 290 284 264 246 228 225 221 216 220 228 229 219 213 211 208 200 206 205 211 215 213 216 229 217 215 206 199 201 195 198 189 183 198 208 228 220 197 202
342 339 321 321 331 334 319 296 264 205 213 235 240 237 230 221 197 222 218 206 196 200 198 205 219 219 218 220 217 220 219 214 206 204 202 205 208 221 219 215 207 211 212 198 199
346 338 333 318 318 328 327 302 258 218 188 190 180 159 209 204 210 215 198 198 198 202 207 212 228 218 219 211 211 215 219 214 217 214 207 221 217 224 227 233 228 209 206 196 202
346 343 340 331 319 315 323 317 277 216 164 226 210 178 155 167 185 206 199 183 200 208 213 220 219 206 213 212 208 214 210 211 206 197 211 209 228 218 223 228 221 212 210 198 188
331 341 334 335 321 318 311 310 296 156 207 231 209 210 179 177 176 202 203 195 200 206 210 217 216 219 211 209 207 209 208 207 211 214 227 211 240 214 207 220 221 220 215 209 203
332 333 333 328 315 319 320 294 167 172 150 186 168 203 175 188 182 167 196 205 195 200 216 221 229 216 218 209 208 199 201 202 209 217 217 221 218 230 213 219 220 223 217 214 208
325 331 332 331 320 317 334 95 205 253 244 194 204 170 145 183 190 163 163 180 204 211 216 215 225 218 208 211 205 199 191 190 209 214 223 215 218 231 186 217 217 220 232 225 221
321 328 329 328 321 312 324 134 247 203 130 134 158 165 176 146 170 174 152 164 203 200 230 212 210 211 215 208 205 205 205 215 209 214 216 212 224 226 231 230 195 216 227 220 214
339 337 330 334 336 333 115 229 219 197 210 227 268 197 199 190 153 164 149 161 200 201 212 226 224 201 212 206 207 209 218 215 254 233 250 191 220 231 219 222 209 203 201 214 218
353 348 336 335 344 29 120 215 234 219 202 158 206 183 201 193 175 173 176 193 180 198 193 223 232 212 215 206 215 216 215 214 226 236 218 235 210 214 225 223 215 243 252 236 219
352 351 342 340 348 49 185 209 182 243 236 130 199 189 181 175 142 173 175 179 190 183 186 214 207 208 208 207 205 206 217 216 217 226 227 231 211 226 226 209 213 238 243 226 216
351 357 347 348 24 344 189 189 222 218 256 244 181 176 178 168 176 167 179 178 170 172 175 232 205 233 216 213 213 224 217 210 219 214 232 266 229 168 198 214 228 222 261 276 223
348 348 349 353 132 298 266 219 208 208 216 221 215 173 173 200 192 168 167 195 187 162 167 188 213 220 222 206 213 214 211 215 218 226 210 223 222 203 201 215 237 236 302 266 216
354 354 345 339 327 239 199 219 226 219 231 215 211 203 203 213 204 192 193 242 218 216 195 182 221 232 241 201 191 203 215 216 216 220 222 221 223 188 190 182 232 226 304 330 216
353 346 343 307 320 287 213 204 208 224 222 200 241 218 217 226 223 224 247 273 276 240 237 215 231 242 250 256 235 212 209 213 217 222 228 222 218 224 226 231 206 231 290 341 203
353 349 343 339 347 61 132 219 182 224 214 220 216 218 219 224 217 212 234 263 232 276 266 242 233 260 255 246 237 235 222 215 216 218 225 231 226 210 223 252 215 244 290 308 193
352 352 359 360 38 113 147 154 158 159 237 223 240 226 213 213 237 249 261 262 258 262 253 240 232 247 242 214 232 242 226 216 216 219 218 222 221 230 227 223 247 238 272 278 211
Height
3164 3162 3161 3159 3158 3158 3157 3157 3156 3155 3154 3155 3155 3155 3155 3156 3156 3157 3159 3161 3162 3164 3167 3171 3173 3174 3176 3176 3177 3179 3181 3179 3181 3181 3184 3184 3185 3184 3185 3185 3185 3186 3188 3189 3191
3160 3158 3157 3155 3153 3152 3152 3151 3152 3151 3150 3151 3151 3151 3152 3153 3153 3153 3156 3157 3159 3161 3164 3169 3171 3174 3174 3176 3177 3178 3179 3180 3182 3183 3184 3184 3186 3185 3186 3185 3185 3186 3188 3190 3192
3156 3154 3152 3151 3149 3148 3147 3147 3146 3146 3146 3146 3147 3148 3148 3149 3151 3149 3151 3153 3155 3158 3161 3164 3168 3171 3174 3175 3178 3180 3180 3181 3182 3182 3183 3185 3187 3187 3189 3189 3187 3187 3188 3190 3192
3152 3150 3148 3146 3145 3144 3143 3142 3142 3141 3141 3141 3141 3143 3145 3147 3152 3146 3147 3149 3152 3154 3157 3160 3165 3169 3173 3174 3176 3178 3179 3181 3182 3182 3183 3184 3187 3188 3189 3189 3188 3187 3189 3191 3193
3149 3147 3145 3142 3141 3139 3138 3138 3137 3137 3137 3137 3137 3138 3141 3143 3144 3143 3144 3147 3149 3151 3155 3158 3163 3167 3171 3173 3175 3176 3179 3179 3181 3182 3183 3184 3187 3189 3189 3188 3188 3187 3189 3190 3194
3145 3143 3140 3139 3136 3134 3133 3133 3132 3132 3132 3132 3133 3133 3135 3139 3140 3140 3142 3144 3146 3149 3152 3156 3160 3164 3168 3170 3173 3175 3176 3178 3180 3182 3182 3184 3186 3187 3189 3188 3188 3188 3189 3190 3194
3142 3139 3136 3134 3133 3131 3130 3128 3128 3128 3128 3128 3128 3129 3131 3133 3133 3136 3138 3141 3144 3146 3149 3153 3156 3161 3165 3168 3169 3171 3174 3177 3178 3181 3182 3183 3186 3186 3187 3188 3188 3188 3189 3191 3193
3138 3135 3132 3129 3127 3127 3126 3124 3124 3124 3124 3124 3124 3125 3127 3127 3129 3132 3134 3137 3140 3143 3147 3149 3152 3157 3160 3165 3167 3171 3173 3175 3176 3178 3179 3181 3181 3186 3185 3187 3188 3188 3189 3190 3192
3135 3132 3128 3126 3123 3122 3122 3121 3121 3120 3120 3120 3121 3122 3124 3124 3126 3128 3131 3134 3137 3140 3144 3147 3150 3155 3159 3162 3168 3169 3168 3171 3174 3175 3176 3179 3179 3183 3184 3186 3187 3188 3189 3189 3191
3133 3129 3126 3122 3119 3117 3117 3117 3117 3117 3118 3117 3118 3122 3121 3121 3122 3124 3127 3131 3135 3138 3142 3146 3149 3152 3154 3159 3159 3164 3167 3168 3170 3174 3176 3178 3180 3180 3183 3186 3187 3188 3188 3189 3190
3131 3127 3124 3121 3117 3115 3115 3115 3117 3117 3115 3116 3117 3118 3118 3119 3120 3122 3125 3128 3132 3136 3141 3143 3148 3148 3153 3156 3160 3162 3165 3167 3169 3172 3174 3176 3179 3180 3181 3185 3186 3186 3188 3188 3190
3128 3125 3120 3118 3116 3114 3112 3112 3113 3114 3114 3114 3114 3115 3115 3117 3119 3120 3123 3128 3130 3135 3140 3143 3141 3147 3151 3154 3157 3160 3163 3165 3167 3169 3172 3173 3176 3178 3179 3182 3185 3186 3186 3186 3188
3125 3121 3118 3116 3113 3112 3110 3111 3110 3111 3113 3114 3113 3114 3114 3115 3117 3118 3122 3125 3129 3134 3137 3139 3141 3144 3146 3149 3153 3156 3159 3162 3166 3168 3170 3170 3174 3176 3176 3178 3181 3184 3186 3185 3186
3123 3119 3115 3113 3113 3110 3109 3108 3108 3109 3113 3115 3115 3114 3114 3114 3116 3116 3119 3125 3128 3131 3135 3137 3140 3140 3143 3146 3150 3152 3157 3160 3164 3165 3165 3168 3165 3169 3174 3174 3177 3180 3182 3183 3183
3121 3117 3113 3110 3109 3108 3107 3106 3106 3107 3107 3113 3113 3112 3113 3115 3114 3115 3117 3121 3126 3128 3132 3133 3135 3138 3140 3143 3147 3151 3154 3158 3161 3162 3161 3165 3166 3161 3168 3171 3173 3176 3178 3181 3181
3118 3114 3111 3109 3107 3106 3104 3104 3106 3109 3104 3111 3110 3110 3113 3112 3113 3114 3116 3120 3122 3126 3128 3130 3132 3134 3138 3141 3145 3150 3152 3156 3159 3160 3158 3158 3163 3156 3161 3167 3170 3172 3174 3177 3179
3115 3112 3109 3106 3106 3104 3103 3104 3108 3104 3107 3110 3110 3109 3110 3110 3111 3114 3116 3118 3121 3123 3123 3126 3128 3131 3133 3138 3141 3145 3148 3149 3151 3149 3147 3153 3158 3155 3157 3162 3166 3170 3170 3172 3176
3111 3109 3107 3105 3104 3103 3103 3106 3107 3106 3107 3106 3106 3108 3110 3109 3110 3111 3114 3116 3115 3117 3119 3120 3123 3126 3128 3132 3135 3138 3140 3136 3137 3137 3143 3150 3149 3154 3157 3160 3162 3166 3169 3169 3171
3108 3106 3104 3103 3102 3101 3103 3107 3105 3105 3104 3105 3107 3108 3109 3108 3109 3111 3111 3113 3112 3113 3119 3116 3118 3121 3126 3129 3132 3135 3134 3138 3136 3134 3135 3138 3149 3152 3154 3157 3160 3162 3164 3166 3166
3107 3104 3102 3101 3100 3100 3104 3104 3104 3102 3102 3104 3106 3106 3107 3107 3109 3109 3110 3109 3110 3111 3113 3117 3118 3117 3122 3126 3128 3129 3135 3137 3136 3133 3133 3133 3136 3144 3149 3153 3157 3160 3161 3161 3162
3106 3103 3101 3100 3099 3101 3104 3103 3102 3100 3101 3104 3104 3104 3105 3106 3106 3107 3108 3108 3108 3109 3111 3114 3116 3114 3119 3119 3121 3126 3127 3129 3134 3133 3128 3131 3133 3140 3144 3149 3153 3156 3156 3157 3157
3104 3104 3100 3098 3102 3099 3101 3099 3100 3100 3100 3101 3101 3102 3103 3103 3105 3105 3106 3105 3105 3107 3112 3111 3113 3111 3112 3116 3118 3121 3123 3126 3126 3130 3132 3132 3131 3136 3142 3147 3149 3150 3150 3151 3154
3103 3101 3099 3097 3101 3099 3096 3096 3097 3100 3100 3100 3101 3100 3099 3102 3104 3103 3102 3102 3104 3105 3106 3108 3112 3110 3110 3114 3115 3116 3119 3122 3126 3128 3129 3134 3133 3136 3137 3142 3144 3145 3146 3144 3145
3102 3100 3097 3095 3095 3095 3096 3096 3096 3095 3097 3098 3099 3098 3099 3100 3100 3101 3102 3100 3101 3103 3104 3106 3109 3108 3104 3106 3108 3112 3115 3119 3121 3122 3126 3127 3132 3134 3139 3138 3142 3142 3143 3140 3140
3099 3098 3095 3094 3091 3090 3091 3092 3094 3095 3095 3096 3098 3098 3099 3099 3099 3100 3100 3100 3099 3099 3102 3104 3106 3106 3106 3107 3109 3110 3113 3115 3118 3121 3122 3124 3128 3133 3138 3136 3138 3139 3140 3139 3138
3097 3095 3092 3089 3088 3088 3088 3089 3091 3093 3094 3095 3096 3096 3097 3098 3098 3098 3098 3099 3099 3099 3101 3102 3104 3103 3102 3105 3106 3107 3109 3112 3115 3118 3121 3123 3126 3129 3131 3131 3137 3137 3138 3138 3138
3095 3092 3089 3088 3086 3088 3088 3088 3088 3089 3091 3092 3093 3094 3095 3094 3093 3094 3095 3095 3096 3097 3099 3101 3102 3103 3100 3102 3104 3104 3103 3107 3111 3115 3119 3121 3124 3122 3128 3129 3131 3135 3135 3137 3136